GFSSW_sfc_30mbdewp_021.txt.gz
Dewpoint
55 55 55 55 55 56 56 56 56 56 56 56 57 57 58 58 57 50 28 26 25 45 49 31 26 19 27 41 39 39 35 32 29 28 30 31 34 37 43 46 48 48 50 54 60
54 55 55 55 55 56 56 55 56 56 56 56 56 57 58 57 51 37 39 32 27 35 39 23 13 17 32 38 36 35 35 30 30 28 28 30 30 34 39 43 48 50 55 58 61
54 54 54 54 54 55 55 55 55 55 56 56 56 57 58 57 47 39 50 35 35 42 32 23 21 24 31 36 34 34 29 27 25 26 25 28 31 34 34 37 44 49 56 59 60
53 53 53 53 53 54 54 54 55 55 55 55 56 56 58 51 33 45 52 45 50 44 26 26 22 19 25 33 32 31 28 27 24 25 25 25 28 31 34 38 44 48 55 59 59
52 53 52 53 53 53 53 54 54 54 55 56 56 56 53 38 35 49 51 45 41 23 23 23 18 19 24 29 30 31 28 28 28 28 29 28 28 29 31 38 47 49 55 58 58
52 52 52 52 53 53 54 54 54 54 55 57 56 56 46 21 41 41 34 36 27 21 25 24 21 23 23 26 28 29 29 30 28 29 28 28 29 32 39 43 44 49 54 55 57
51 51 51 52 52 52 53 53 53 55 57 57 56 51 31 20 41 39 30 27 22 18 25 29 26 19 22 24 27 27 28 28 26 26 25 25 26 31 36 45 44 48 52 54 57
51 51 51 51 52 52 52 52 53 56 56 55 57 47 23 30 37 36 31 26 23 19 28 30 28 22 21 23 23 26 24 21 25 24 26 21 26 30 40 43 44 50 52 54 57
50 50 51 51 52 52 52 52 55 57 56 57 54 39 23 38 29 34 30 24 20 22 28 30 25 20 17 11 8 12 12 17 16 23 21 18 20 30 40 44 45 52 52 56 59
50 50 51 51 51 51 51 51 55 57 56 51 44 34 23 13 22 32 31 21 15 19 23 25 20 14 9 8 3 4 4 5 10 18 21 15 18 20 33 41 46 52 55 57 60
50 50 50 51 51 50 47 44 44 42 41 23 25 14 17 29 29 28 29 21 21 16 18 21 13 6 7 10 13 14 9 8 9 14 19 16 19 18 28 33 43 51 57 57 59
49 50 50 50 50 50 46 31 28 29 21 19 17 21 23 28 22 23 25 20 18 16 18 19 8 11 15 13 12 10 9 10 12 19 17 15 17 18 23 33 40 48 57 56 59
49 49 50 50 49 44 32 29 29 29 22 14 17 13 16 25 22 23 22 21 21 17 18 13 16 18 14 11 11 9 9 10 14 18 15 14 16 16 21 33 41 44 52 56 59
49 49 49 49 37 23 28 32 28 30 18 12 12 12 12 20 20 26 23 23 24 20 17 15 14 14 12 12 13 10 16 15 14 14 11 18 7 18 20 27 39 43 47 52 58
48 48 48 48 37 19 33 27 29 30 9 12 11 18 13 15 15 22 26 26 26 22 23 16 16 17 13 12 14 16 22 16 17 15 13 12 11 13 19 17 29 33 45 48 57
48 48 48 41 38 25 23 27 30 18 4 10 14 12 11 12 16 21 27 28 27 24 23 21 20 19 15 18 19 20 20 17 17 14 8 10 13 7 18 27 26 36 44 49 54
47 47 47 39 23 25 24 27 17 10 9 9 11 10 10 10 12 24 25 26 24 23 21 19 19 18 19 17 19 19 16 12 11 12 9 19 14 11 18 24 29 33 43 49 52
46 47 45 34 31 28 27 23 15 7 6 14 12 10 7 8 12 20 24 24 23 20 17 17 13 17 20 17 16 19 17 11 9 9 16 19 13 23 25 28 35 40 44 49 51
46 40 32 31 31 28 25 16 13 10 7 10 12 11 9 8 11 18 20 22 21 21 20 14 14 17 18 16 15 15 15 15 11 12 12 11 12 19 23 28 35 40 43 47 49
39 28 28 35 33 25 21 15 11 8 12 11 10 11 11 10 9 16 17 18 19 21 22 19 17 17 17 17 17 17 20 17 14 11 11 13 18 18 27 30 38 40 43 45 48
40 26 32 27 26 19 11 13 13 11 12 9 8 14 13 11 10 11 14 16 17 19 19 17 19 14 16 17 13 19 18 17 14 16 18 17 24 26 25 28 37 39 43 47 50
34 21 29 27 14 13 9 12 16 11 12 8 14 12 13 15 14 13 12 16 15 15 16 16 18 17 16 14 13 14 18 19 17 17 18 18 22 28 24 30 30 39 44 51 55
34 24 27 26 10 8 10 13 15 10 9 6 6 14 17 16 17 13 14 14 14 16 18 19 17 17 18 14 16 14 12 16 22 24 25 25 21 29 30 31 37 40 45 55 56
37 20 22 19 19 24 15 18 14 10 9 9 8 14 16 16 21 18 14 14 13 15 28 28 19 19 12 21 23 19 16 15 18 20 18 16 19 29 29 31 45 44 49 56 59
33 29 30 16 16 19 19 17 12 16 17 18 14 14 12 15 16 18 14 13 14 23 24 25 24 22 21 15 14 16 15 17 16 19 20 23 29 32 36 38 44 48 55 57 59
35 32 23 26 32 24 24 22 18 12 22 16 14 12 9 14 16 16 16 17 15 18 19 27 28 26 23 19 13 13 13 14 16 19 21 22 30 43 41 45 42 50 55 56 57
32 35 35 27 24 23 21 21 22 20 25 28 22 17 21 23 25 31 34 36 34 32 27 29 28 25 24 20 14 17 17 14 15 21 22 22 26 35 35 45 46 50 56 56 56

GFSSW_sfc_30mbdewp_024.txt.gz
Dewpoint
55 55 55 56 56 56 56 56 56 56 56 56 57 57 58 58 57 53 34 25 27 42 42 36 25 21 19 20 36 37 42 39 26 28 27 31 36 34 37 42 45 47 49 55 60
54 54 54 55 55 55 56 56 56 56 56 56 57 57 58 58 53 39 35 34 22 30 23 26 14 13 17 31 36 43 44 39 26 26 26 28 28 32 41 47 51 51 55 57 59
54 54 54 54 54 55 55 55 55 55 56 56 56 57 57 57 50 41 47 37 26 31 38 24 18 18 23 32 34 40 38 41 25 23 23 25 29 31 37 45 50 52 55 57 58
53 53 53 53 53 54 54 55 55 55 55 56 57 57 57 53 37 38 42 37 38 40 34 24 20 20 24 30 32 36 36 25 22 23 24 25 26 27 32 42 51 53 56 57 58
52 53 53 53 53 53 53 54 54 55 55 57 58 57 52 44 39 39 42 41 40 37 21 22 18 18 19 28 28 29 24 23 25 26 26 27 26 29 28 43 44 53 57 57 57
52 52 52 52 53 53 54 53 54 54 56 57 58 57 49 27 41 33 35 31 36 21 22 22 20 22 24 24 26 28 28 26 26 26 27 25 31 30 35 37 45 52 56 57 57
51 52 52 52 52 53 53 53 53 54 57 57 57 51 34 22 37 37 31 27 22 18 21 25 26 21 19 23 26 27 23 24 26 25 21 31 32 32 33 40 44 48 52 55 57
51 51 52 52 52 52 52 52 52 55 58 57 57 49 31 25 32 34 30 26 22 16 24 27 26 21 19 23 21 20 22 20 21 26 23 18 30 29 32 38 41 46 50 52 57
50 51 51 51 52 52 51 51 51 57 59 58 54 44 24 27 20 31 28 23 20 18 24 26 23 20 16 12 11 14 14 16 24 22 19 17 16 28 32 36 41 47 49 52 57
50 51 51 51 51 51 50 49 49 53 56 52 45 34 28 21 16 27 28 24 17 17 20 21 20 15 11 8 3 7 6 5 17 14 21 16 15 18 29 31 42 49 51 54 58
50 50 50 51 51 51 46 34 41 44 37 25 24 11 17 23 21 27 28 22 16 13 14 18 12 7 5 8 12 12 12 8 9 11 15 16 15 18 20 26 32 53 54 55 58
49 50 50 50 50 49 47 33 27 25 22 23 23 21 18 24 21 20 25 18 17 13 13 17 9 9 13 13 9 6 5 6 9 11 18 15 14 16 17 27 33 48 56 54 57
49 49 50 50 49 44 29 29 27 23 19 13 12 12 16 19 21 16 23 17 17 13 14 13 11 16 13 7 5 5 6 8 12 15 17 15 13 17 18 28 32 31 55 54 57
49 49 49 49 38 31 19 31 23 25 16 8 11 12 10 14 15 20 21 17 19 15 14 14 13 15 13 6 9 9 14 12 11 11 12 16 12 18 23 29 33 37 45 52 58
48 48 49 49 37 26 30 26 25 26 10 3 12 11 8 12 12 18 22 18 20 19 20 15 13 14 8 9 10 9 20 20 13 13 12 10 9 22 21 20 33 35 43 49 58
48 48 48 39 43 30 21 22 25 19 4 9 11 11 6 9 11 16 22 21 23 24 21 20 20 15 13 12 13 14 17 15 14 14 10 13 9 13 28 33 27 33 44 54 56
47 47 47 41 26 24 21 22 17 12 5 8 10 10 6 7 9 17 22 21 23 22 22 19 17 15 16 15 18 15 16 12 9 11 14 25 21 20 20 27 27 34 44 50 55
46 47 42 34 25 26 23 20 15 9 6 5 9 7 4 5 6 12 20 21 22 21 17 17 13 15 16 15 14 17 16 13 11 10 20 26 22 23 24 28 32 33 45 50 52
46 39 34 32 32 27 22 17 16 14 6 7 8 7 5 5 7 8 18 19 20 20 18 15 17 15 16 17 14 13 12 13 13 13 9 9 23 28 27 25 34 36 45 48 52
42 32 26 27 29 25 19 16 13 11 10 9 8 8 7 4 6 8 16 18 19 19 20 20 17 16 16 17 16 15 15 14 18 12 11 11 28 34 37 43 35 39 44 48 52
41 30 32 28 27 20 13 14 16 14 12 9 8 11 8 8 7 7 14 16 17 18 19 19 20 17 17 17 16 15 19 14 12 15 14 15 31 39 37 45 37 38 43 47 50
40 26 31 21 16 12 10 11 13 13 12 10 12 13 14 14 12 9 10 13 16 17 18 19 18 18 16 16 15 13 13 16 18 18 19 20 25 38 40 37 38 36 40 46 49
41 29 28 21 9 8 10 8 9 13 12 10 7 11 14 18 17 14 14 15 15 15 27 22 16 15 18 19 15 13 14 13 13 23 24 28 30 40 36 34 29 36 43 52 54
40 20 22 19 18 18 19 10 9 13 10 11 8 8 13 16 17 25 14 15 14 14 25 24 24 19 15 19 23 22 20 19 14 16 17 18 28 36 42 45 49 46 51 56 57
38 30 28 13 9 15 21 19 15 15 10 12 9 11 14 16 16 19 18 16 14 20 18 21 24 23 19 17 18 18 21 17 15 15 16 18 29 40 43 43 49 52 56 57 59
29 33 35 25 28 21 18 20 17 16 14 15 16 14 13 13 17 17 16 17 15 15 19 22 23 23 24 23 19 15 13 13 13 14 17 16 22 41 48 44 49 50 55 59 60
31 32 32 29 23 25 22 19 20 21 15 21 21 17 14 19 24 31 33 34 35 33 27 25 26 27 24 23 21 20 15 13 15 15 14 18 30 47 48 51 51 52 56 56 59

GFSSW_sfc_30mbdewp_027.txt.gz
Dewpoint
55 55 55 56 56 56 56 56 56 56 56 57 57 58 58 58 57 55 38 31 30 37 30 18 30 31 21 20 20 47 46 43 41 41 35 36 43 45 45 46 50 55 56 59 61
54 54 55 55 55 55 55 55 56 56 56 57 57 58 58 58 54 45 40 33 28 30 7 29 28 17 14 15 40 44 42 42 42 32 26 29 43 43 42 39 47 57 59 59 61
54 54 54 54 54 55 55 55 55 55 56 56 57 58 58 57 52 41 44 41 31 27 19 34 30 22 20 23 39 36 30 31 33 25 23 26 40 44 43 41 43 56 58 60 60
53 53 53 53 53 53 54 54 54 55 55 56 58 59 58 55 39 34 40 32 31 38 35 35 24 20 20 23 39 34 34 34 26 24 26 26 26 42 45 45 45 56 58 59 60
52 52 53 52 53 53 53 53 54 54 55 57 58 59 51 44 43 38 39 36 40 37 37 27 22 19 20 24 31 29 34 33 25 26 26 28 31 32 44 47 48 57 58 59 59
52 52 52 52 52 53 53 53 53 54 55 57 58 57 49 36 39 32 33 33 34 36 22 22 24 24 22 22 26 29 27 26 26 26 29 29 33 38 44 49 51 55 57 58 59
51 51 51 51 52 52 53 53 52 52 54 58 57 53 41 27 37 34 39 31 32 23 17 23 25 24 23 19 24 26 24 24 25 26 28 28 29 31 42 52 54 57 57 58 59
51 51 51 51 52 52 52 52 51 51 54 59 58 51 36 32 33 36 35 29 24 21 16 26 27 25 23 20 20 19 20 21 28 27 26 25 26 33 38 46 52 55 57 58 59
50 50 51 51 52 52 52 50 50 51 55 59 54 47 37 24 23 30 32 27 23 19 17 23 22 21 21 18 14 14 13 17 27 26 26 16 24 32 35 40 46 51 53 59 59
50 50 51 51 51 52 51 44 47 50 51 53 48 38 37 27 20 19 30 27 21 16 17 22 21 19 18 16 10 10 13 17 27 26 24 17 16 31 37 40 48 51 54 59 58
50 50 51 51 51 51 48 35 42 43 39 36 31 20 21 26 21 21 28 26 21 15 12 18 17 15 13 12 11 9 8 7 13 16 15 16 16 17 25 34 50 51 55 59 59
49 50 50 50 50 50 49 31 28 24 21 23 25 32 26 24 22 22 27 23 19 15 15 13 16 13 14 13 9 5 5 7 9 17 17 18 17 17 22 30 52 53 57 59 60
49 49 50 50 49 47 30 27 28 23 21 19 16 16 22 20 22 21 22 24 18 17 16 13 17 17 15 11 6 5 5 7 12 14 13 15 19 20 20 34 55 55 56 59 61
49 49 49 49 38 33 29 29 24 24 22 14 11 11 15 15 13 17 22 22 16 16 14 14 16 15 14 14 7 6 15 14 13 11 11 19 13 17 29 32 40 56 56 60 62
48 49 49 48 40 29 26 21 23 26 16 9 8 14 11 10 13 14 22 21 17 16 19 18 15 14 14 10 9 10 18 20 19 14 13 13 15 24 29 36 42 51 54 61 64
48 48 48 46 45 35 28 23 24 22 15 8 12 8 7 8 10 13 21 19 18 18 24 20 21 17 14 10 11 13 15 17 18 16 13 21 21 25 27 38 44 46 46 60 63
47 47 47 44 34 31 27 22 20 18 10 6 11 8 5 5 7 9 21 18 18 21 23 25 20 19 17 14 15 17 16 16 15 18 18 24 20 24 29 36 38 41 58 58 63
46 47 46 42 30 30 29 23 19 14 9 10 11 11 10 7 7 7 20 21 20 22 23 23 20 16 15 14 18 19 17 17 14 15 18 25 20 29 36 39 43 52 55 59 62
46 44 40 38 41 34 26 20 18 19 11 10 9 10 9 8 6 6 17 22 23 22 22 23 22 23 17 17 16 15 14 18 15 18 17 17 32 31 41 41 40 44 50 59 61
44 37 35 33 33 26 23 19 17 16 13 11 10 8 10 6 4 6 13 18 21 22 23 21 21 17 17 17 17 16 19 14 19 18 17 21 29 27 38 37 37 40 44 55 60
45 37 29 30 29 25 17 16 16 17 17 11 10 12 13 16 10 8 8 17 19 19 21 20 23 22 21 17 16 18 15 18 16 16 13 14 22 38 34 41 42 44 49 55 58
42 35 34 27 23 21 15 13 12 13 13 12 11 11 14 17 21 12 9 16 17 18 19 21 22 19 21 21 19 19 18 24 23 18 24 26 30 42 41 46 48 50 57 54 57
40 39 31 25 15 14 14 10 10 9 10 12 12 10 10 17 21 27 17 15 18 26 25 26 21 17 17 19 21 23 23 14 19 26 16 17 27 42 47 48 52 55 59 56 57
40 35 29 27 22 17 19 22 20 12 11 12 13 13 11 16 19 20 22 16 16 21 24 26 27 29 18 23 24 21 21 21 21 20 19 22 32 39 41 38 38 45 50 54 59
41 37 34 22 19 17 19 22 22 16 14 13 16 12 12 17 22 18 20 21 15 18 18 26 24 27 26 23 21 21 22 22 22 24 21 17 33 42 41 35 40 40 52 52 57
36 31 33 33 32 17 26 17 22 21 16 11 14 16 15 17 19 30 33 35 34 22 19 24 25 25 25 27 24 23 23 23 21 16 15 34 39 48 49 46 44 46 49 52 54
38 33 32 32 30 25 25 24 19 21 23 21 16 22 20 36 36 33 31 32 36 35 37 28 31 25 22 27 27 24 26 26 26 33 33 21 40 48 48 49 47 41 38 48 54

GFSSW_sfc_30mbdewp_030.txt.gz
Dewpoint
55 55 55 55 55 55 55 55 56 56 56 56 57 58 58 58 57 54 26 35 36 32 20 10 32 29 30 21 24 49 34 34 33 36 38 42 44 47 51 54 55 56 58 60 68
54 54 54 54 54 55 55 55 56 55 56 56 57 58 58 58 54 46 43 34 29 26 4 24 30 31 18 15 36 38 40 35 39 38 37 42 45 42 49 54 56 57 59 61 66
53 53 53 53 53 54 55 55 55 55 55 56 57 58 59 57 51 47 46 40 31 26 15 23 34 28 20 22 38 42 41 42 42 43 38 42 41 45 47 51 56 57 59 61 63
52 53 53 53 53 53 53 54 54 54 54 56 58 59 59 55 39 36 43 34 33 34 34 34 31 21 19 19 28 32 32 33 32 28 26 38 43 42 40 44 58 59 60 60 62
52 52 52 52 52 53 53 53 54 53 54 55 58 58 51 38 39 43 35 34 35 36 35 32 24 24 21 22 32 35 30 34 33 31 27 31 36 40 42 46 59 59 60 60 61
51 51 51 52 52 53 53 53 53 53 53 55 59 57 46 29 40 35 23 31 28 35 32 25 22 25 22 21 22 26 26 27 27 26 30 31 39 43 47 54 57 59 60 60 61
51 51 51 51 51 52 53 53 53 51 52 54 59 55 42 7 35 29 30 29 31 33 20 16 26 23 24 20 21 21 25 24 23 24 27 30 33 42 47 55 56 57 59 59 61
50 50 50 51 51 52 52 52 51 51 53 55 59 52 21 38 34 35 37 34 33 28 20 18 25 24 24 22 18 15 17 20 22 26 27 23 18 37 50 53 55 57 58 59 61
50 50 50 51 51 52 52 50 50 51 54 56 53 48 25 38 25 34 35 31 28 23 19 17 20 20 21 18 16 14 10 12 15 27 25 20 20 32 50 53 54 56 57 59 61
50 50 51 51 51 52 51 47 46 50 53 51 51 32 31 26 24 20 31 31 27 18 16 18 22 19 19 16 10 10 11 14 24 24 25 21 17 23 41 53 55 56 58 59 60
49 50 50 51 51 51 48 32 29 30 36 30 29 23 25 27 20 17 26 28 23 19 12 14 17 14 11 16 14 12 7 7 11 20 22 17 16 17 35 46 50 55 59 59 59
49 49 50 50 50 50 48 28 31 27 21 23 26 29 31 32 23 22 27 24 20 17 17 14 12 15 18 16 13 6 4 4 9 17 16 17 17 19 25 47 51 57 58 58 60
48 49 50 50 49 46 32 27 28 25 21 22 20 17 20 27 25 22 24 25 20 18 16 16 13 17 18 14 6 5 5 5 8 13 14 17 15 17 25 48 52 58 58 59 60
49 49 49 49 36 34 29 29 24 27 20 14 18 12 15 18 15 22 22 25 21 16 17 17 14 14 16 13 12 4 8 21 20 15 10 17 11 15 32 51 53 57 59 60 65
49 49 49 49 40 23 27 31 28 28 -6 15 11 13 13 15 14 13 20 23 19 16 18 18 18 17 14 13 11 6 16 17 17 15 12 12 13 18 43 50 51 55 59 61 67
48 48 48 46 44 38 37 29 26 21 -2 12 11 9 11 13 11 13 18 22 21 18 18 19 24 21 17 13 10 15 15 17 22 18 13 13 19 21 32 46 53 54 59 62 65
47 47 47 45 27 36 31 25 16 15 16 7 8 9 8 8 9 9 17 18 15 15 16 23 24 23 18 15 16 16 15 12 13 17 16 26 23 25 35 40 48 50 61 64 64
47 47 46 45 40 36 29 22 11 13 11 10 7 9 7 6 6 7 14 18 18 20 21 21 19 21 19 15 15 16 14 13 12 13 16 24 17 33 41 44 49 60 55 54 63
47 43 42 39 43 36 24 16 9 20 16 14 11 9 7 8 6 6 13 20 19 20 18 23 22 25 23 16 15 15 15 19 17 20 17 20 32 34 41 48 54 55 57 59 62
43 39 33 36 39 28 22 17 18 19 17 16 11 12 9 10 9 7 10 21 22 20 22 21 20 21 21 16 18 14 16 13 17 12 13 21 26 28 35 40 48 49 51 54 62
44 37 35 35 30 25 14 15 16 15 15 13 12 10 14 17 18 6 6 14 23 23 24 23 21 18 22 17 15 16 15 18 16 17 10 13 16 37 37 41 41 43 50 54 56
41 35 32 30 21 23 16 15 14 11 11 10 12 11 11 16 18 24 8 9 19 19 19 22 22 18 19 22 22 19 17 17 17 16 22 22 24 44 42 43 44 46 54 58 58
32 41 34 26 17 16 16 14 11 7 7 9 11 13 13 12 16 24 21 19 25 23 22 25 21 17 17 18 23 22 24 21 23 24 16 15 18 43 45 47 51 45 48 49 51
39 38 28 27 24 19 17 18 19 23 16 11 11 13 12 15 21 19 17 21 19 22 30 30 28 18 16 20 25 21 23 24 21 19 19 20 28 40 45 47 53 49 45 40 43
41 37 33 30 22 22 20 18 18 18 22 14 13 15 13 15 19 30 30 28 25 22 21 24 25 26 25 24 24 24 25 25 23 24 22 22 27 37 45 47 52 50 50 50 51
34 30 30 31 33 28 20 14 15 17 21 12 11 15 31 34 33 29 33 35 34 35 19 25 23 24 20 28 28 26 25 26 26 33 26 34 32 47 47 48 52 52 56 57 58
40 38 33 32 29 27 25 25 23 22 23 37 32 28 34 34 35 35 32 30 33 34 36 35 25 22 15 27 31 19 23 26 39 44 41 30 36 48 49 46 50 55 54 53 55

GFSSW_sfc_30mbdewp_033.txt.gz
Dewpoint
54 54 54 54 54 55 55 55 55 55 55 55 57 58 58 58 56 53 17 28 35 31 28 10 34 32 29 20 26 47 36 33 34 36 36 42 47 51 54 55 56 58 58 61 65
53 54 54 54 53 54 54 55 55 55 55 55 56 58 59 59 53 47 36 41 29 30 7 26 27 31 19 15 29 28 36 32 38 38 37 43 46 50 53 55 57 59 65 68 69
53 53 53 53 53 53 54 55 55 54 54 55 56 58 59 58 49 44 51 41 36 25 16 24 33 27 20 22 40 38 34 38 38 42 40 40 44 44 53 53 56 57 66 68 68
52 52 52 52 53 53 53 54 54 54 54 54 55 59 58 55 37 38 44 42 33 32 34 33 28 21 19 18 25 37 36 38 37 34 41 38 43 41 46 47 57 60 66 67 67
52 52 52 52 52 53 53 53 54 53 54 54 55 59 49 33 35 47 42 35 35 35 33 29 23 24 22 22 24 34 31 33 34 33 30 37 41 41 42 57 59 61 62 66 66
51 51 51 51 52 52 53 53 53 53 53 54 55 59 43 13 38 39 25 28 27 34 32 29 21 25 23 22 22 23 21 25 26 26 29 33 37 41 49 59 59 60 60 62 64
50 50 50 51 51 51 52 52 52 52 53 54 56 56 39 4 35 31 26 26 30 32 27 18 22 24 24 21 21 20 22 23 24 25 27 37 39 42 51 58 58 59 60 60 62
50 50 50 51 51 51 51 52 52 52 54 55 58 52 31 31 34 30 32 33 34 32 29 21 21 21 24 23 18 14 17 17 20 23 22 26 23 39 55 57 58 58 59 60 61
50 50 50 50 51 51 51 51 51 52 54 57 54 47 23 35 30 34 36 31 30 28 23 19 21 20 21 17 13 14 8 10 12 18 24 23 20 40 54 56 57 58 59 60 61
49 50 50 51 51 51 51 49 44 51 52 53 50 25 24 23 27 26 35 34 29 22 16 19 21 19 19 15 8 10 10 11 17 22 26 21 18 44 51 55 56 57 58 59 60
49 50 50 50 50 50 49 31 28 25 30 26 24 17 25 29 27 17 27 29 24 19 14 15 16 10 10 16 15 14 12 9 8 15 24 21 17 20 49 52 54 56 58 59 60
48 49 50 50 50 50 47 29 29 27 22 22 24 30 31 30 27 21 26 26 21 17 17 14 11 12 17 18 17 15 7 3 8 14 17 16 15 21 41 50 54 56 58 59 60
48 49 50 50 49 43 29 28 30 26 21 21 22 18 17 26 23 25 24 25 20 17 17 14 13 17 17 15 14 5 5 6 14 13 17 16 12 17 26 44 51 56 59 59 60
48 49 49 49 34 35 29 31 32 26 15 6 17 13 15 21 19 26 25 25 23 19 18 17 17 16 15 15 14 11 8 17 17 16 11 16 9 13 42 51 56 58 58 59 60
48 49 49 48 40 28 26 34 29 24 -10 5 11 15 15 19 15 14 23 23 22 17 17 16 17 18 19 14 11 9 15 19 18 14 13 13 10 15 45 51 55 57 58 59 63
48 48 48 45 42 38 38 31 25 18 -8 9 10 10 13 15 13 16 19 22 22 21 19 18 21 23 22 17 12 17 15 18 22 18 12 17 16 18 40 45 50 57 60 64 66
48 48 47 45 17 37 32 23 13 9 10 8 8 9 8 10 14 11 16 17 17 14 14 20 21 25 21 15 17 15 14 10 5 14 15 23 23 22 37 42 53 60 63 62 57
47 48 47 46 41 36 27 21 3 3 9 13 12 9 7 7 9 10 12 15 18 20 19 19 17 22 20 16 14 16 13 10 9 12 15 21 20 28 43 45 60 61 60 49 47
47 43 42 41 45 35 23 13 5 14 19 15 14 9 7 7 6 7 10 10 18 20 15 21 21 26 23 21 17 17 15 18 16 20 17 20 31 34 53 57 57 49 49 50 51
40 41 32 40 40 27 19 9 13 21 16 16 11 11 12 11 5 6 8 14 17 20 20 20 18 21 21 19 17 14 18 13 16 11 11 18 20 30 48 53 51 52 48 52 55
43 35 35 39 28 22 13 13 16 17 12 12 12 11 11 15 11 7 7 10 18 21 21 23 20 19 21 17 15 16 15 17 17 17 10 13 13 32 46 49 49 51 53 56 57
38 29 34 29 15 22 13 18 14 10 10 7 11 12 11 12 18 23 10 8 19 23 20 22 21 19 19 22 23 19 17 17 14 16 23 19 16 39 39 43 45 45 55 55 59
30 38 38 25 20 15 17 14 15 10 7 3 7 12 13 11 16 21 19 19 23 21 21 23 21 19 18 18 22 23 22 23 22 20 17 15 17 43 44 45 47 50 55 54 59
38 35 29 27 23 19 18 16 13 21 18 13 9 11 13 16 23 20 19 21 23 31 33 25 21 18 17 18 23 20 24 23 21 20 20 20 21 39 41 45 49 47 48 52 54
41 34 33 29 24 26 21 19 17 15 22 20 13 15 13 17 26 29 33 32 30 34 26 25 24 25 22 23 23 24 24 26 24 24 23 24 26 32 43 46 48 47 49 51 53
32 29 31 29 33 31 27 18 17 14 18 19 14 26 30 28 30 28 31 33 33 33 21 25 24 23 25 28 26 23 23 27 32 38 31 35 36 48 48 50 49 49 52 54 54
39 39 33 30 30 25 24 22 23 24 24 37 35 33 31 33 35 35 34 29 32 34 36 34 23 18 14 31 25 14 29 34 43 47 44 30 38 48 46 46 48 50 52 52 55

GFSSW_sfc_30mbdewp_036.txt.gz
Dewpoint
54 54 54 54 54 54 55 55 55 55 55 55 55 57 58 59 57 52 17 21 35 32 35 16 30 30 23 18 42 44 35 34 35 37 38 44 49 53 55 56 57 60 62 63 68
53 53 54 53 54 54 54 55 55 55 55 55 55 56 59 59 52 45 38 41 36 33 8 25 25 29 20 18 37 28 33 32 36 37 38 44 48 51 53 55 57 63 64 66 69
53 53 53 53 53 53 54 54 55 55 55 55 55 56 59 58 47 40 51 45 36 22 14 24 32 25 20 22 39 38 30 39 39 41 41 44 47 47 53 53 56 59 64 67 68
52 52 52 52 52 52 53 53 54 54 54 54 55 56 59 54 34 40 49 42 29 30 34 31 27 21 20 20 23 27 36 37 37 38 41 40 44 45 53 48 56 64 66 67 67
52 51 51 51 52 52 52 53 53 54 54 54 55 56 48 23 30 50 43 34 32 34 32 28 23 24 22 22 22 33 31 31 33 34 34 39 41 42 52 56 62 66 67 66 66
51 51 51 51 51 52 52 53 53 53 54 54 55 58 35 3 33 43 25 28 28 33 31 27 21 24 23 22 22 22 20 22 25 29 31 33 40 42 50 59 62 66 66 66 66
51 51 51 51 51 51 52 52 52 53 54 54 55 54 37 4 34 33 24 25 30 32 27 20 19 22 24 21 22 19 17 20 24 25 27 39 38 39 52 59 60 62 64 66 66
50 50 50 50 50 50 51 52 52 53 54 55 57 51 28 28 37 29 30 31 33 33 31 28 21 21 23 23 17 14 15 12 14 22 26 28 20 37 57 58 59 60 60 63 64
50 50 50 50 50 51 51 51 52 53 55 58 53 45 18 29 32 32 35 33 31 29 25 20 21 21 20 16 12 12 10 10 10 21 22 25 23 26 57 57 58 59 60 60 61
49 50 50 51 51 51 51 49 46 52 52 55 49 22 14 24 29 26 35 35 30 25 16 20 21 18 18 13 14 9 10 11 10 16 27 25 20 40 55 57 57 58 59 60 60
49 49 50 51 51 50 48 32 27 25 28 24 19 8 18 28 30 20 32 32 25 19 13 15 12 2 8 15 15 14 13 12 10 10 21 23 21 19 50 55 55 57 59 59 60
49 49 50 50 50 50 45 26 26 27 21 24 23 27 30 30 23 25 29 26 21 20 17 13 8 12 16 17 16 16 14 5 8 13 19 17 17 21 47 51 53 56 58 59 60
49 49 50 50 48 36 29 28 32 27 22 20 22 21 20 26 20 22 25 25 20 17 16 12 11 18 16 16 14 12 5 5 16 15 17 15 11 15 26 40 45 54 58 59 60
49 49 50 49 27 37 28 32 33 28 11 3 13 15 20 24 20 27 25 26 24 21 19 16 17 17 18 15 16 12 11 12 18 16 13 16 12 12 30 50 55 57 58 59 63
49 49 49 48 35 28 26 34 30 20 -12 1 10 15 17 16 16 20 26 25 23 19 17 14 17 16 16 18 14 12 12 19 17 14 12 15 12 12 39 46 52 58 59 64 63
49 48 48 44 41 32 37 31 24 12 -11 7 12 11 15 16 14 20 21 23 24 22 21 19 20 19 20 18 14 17 14 17 21 16 11 20 17 16 34 37 41 61 65 64 62
48 48 48 45 11 36 32 21 14 3 5 7 8 10 10 12 15 12 18 19 17 16 15 18 19 24 24 15 17 15 13 9 5 10 11 21 23 22 33 42 51 61 62 64 63
48 48 47 46 41 36 25 19 1 2 6 13 15 12 8 9 13 14 14 14 19 19 20 16 12 22 20 18 14 15 12 10 7 11 14 20 19 27 48 50 61 62 62 57 58
46 42 41 40 46 38 22 14 6 7 19 15 14 10 8 8 8 8 12 11 15 19 15 19 19 26 24 21 18 18 15 17 17 20 16 19 30 33 54 56 58 54 51 50 52
41 42 38 41 42 25 17 9 11 18 16 15 12 11 12 13 6 7 8 12 10 20 18 20 17 21 22 19 18 18 19 15 16 11 10 17 17 24 41 48 55 52 47 50 52
41 31 34 39 27 21 14 12 14 17 15 12 12 11 11 13 11 6 6 8 15 19 20 23 20 19 21 17 16 16 16 16 17 16 10 12 15 25 37 50 52 52 50 53 52
32 27 38 27 18 21 15 17 16 9 9 3 11 11 11 11 16 10 7 9 19 21 19 22 20 17 18 22 23 18 16 17 14 16 21 17 14 30 41 49 51 50 52 55 57
29 37 39 27 17 14 16 14 15 9 6 1 7 10 14 12 13 22 21 19 23 21 19 23 21 18 18 20 23 22 22 22 20 21 20 16 19 35 44 43 48 47 48 55 55
39 32 30 27 23 19 20 18 15 18 16 13 8 10 11 13 24 21 24 24 29 29 33 24 21 19 17 18 22 21 24 22 21 19 19 19 21 25 39 40 44 49 50 53 54
37 33 32 27 25 29 25 21 18 17 19 21 16 13 13 13 26 28 33 32 32 31 27 24 18 21 21 21 23 23 24 24 22 23 20 24 24 25 31 41 44 49 50 50 52
32 29 32 29 32 27 27 24 20 20 16 17 20 15 20 20 24 28 30 31 32 33 23 27 24 25 26 28 26 24 26 27 30 28 27 33 30 35 47 49 50 50 50 52 55
39 39 32 30 29 24 23 23 22 24 25 24 36 32 30 32 35 35 34 29 33 33 35 29 23 19 23 31 20 18 30 35 42 46 41 30 32 48 45 47 47 47 50 50 55

GFSSW_sfc_30mbdewp_042.txt.gz
Dewpoint
54 54 54 54 54 54 54 55 55 55 55 56 56 56 57 57 58 52 17 19 35 38 43 20 25 27 44 32 32 39 35 32 30 33 31 41 43 48 49 52 51 56 53 56 67
53 53 53 53 53 54 54 55 55 55 55 55 56 56 57 58 53 34 44 36 43 35 15 22 25 27 29 20 31 33 34 31 33 34 33 38 42 46 49 50 53 58 60 63 66
53 53 53 53 53 53 54 54 54 54 55 55 56 56 57 58 44 31 50 47 38 21 15 25 28 24 19 23 33 35 32 33 32 33 34 36 42 46 46 45 46 53 59 62 63
52 52 52 52 52 52 53 53 54 54 54 55 56 56 57 51 22 43 46 42 27 33 31 27 26 19 22 26 24 31 32 33 29 33 35 37 40 44 45 44 47 54 58 60 61
52 52 52 52 52 52 52 53 53 54 54 55 56 56 50 25 34 47 38 30 29 29 25 25 22 22 25 26 26 29 28 27 28 28 32 36 39 42 44 46 52 56 57 59 59
51 51 51 52 52 52 53 53 53 54 54 55 56 56 32 12 31 41 23 21 25 27 23 22 22 24 24 24 25 23 23 23 26 28 32 32 32 41 41 49 55 56 56 58 58
51 51 51 51 52 52 53 52 53 53 54 56 56 51 26 9 30 34 25 22 28 27 24 22 21 21 24 24 22 21 24 24 23 23 25 31 32 35 36 52 54 55 55 56 58
50 50 51 51 51 52 52 52 52 54 55 55 55 46 14 23 31 31 31 26 30 30 28 25 21 20 21 24 21 25 25 22 18 14 21 29 23 26 43 50 52 53 55 55 58
50 50 51 51 52 52 52 52 52 53 56 57 50 34 8 23 23 28 30 24 26 27 23 23 22 19 17 21 24 24 23 18 18 16 17 29 24 29 41 47 50 53 55 55 57
50 50 51 51 52 52 51 50 48 51 52 50 43 27 11 16 24 27 31 31 24 21 17 19 17 14 17 21 20 21 21 18 17 12 13 19 22 26 41 45 48 53 56 57 57
50 50 51 51 51 51 47 32 28 30 29 17 16 13 7 22 26 26 29 27 24 18 11 17 10 7 16 20 18 19 21 19 15 14 17 21 25 26 39 45 49 53 56 56 58
49 50 50 51 50 49 44 25 28 28 18 17 19 21 21 23 19 23 27 20 18 12 15 11 3 9 15 16 15 18 20 18 13 20 18 17 20 25 38 44 45 48 55 56 59
49 50 50 50 49 41 31 28 29 29 21 12 16 14 14 19 14 18 22 20 17 12 11 3 6 12 11 14 15 18 18 14 12 18 17 16 16 22 29 46 52 50 50 56 59
49 50 50 49 35 24 29 31 29 29 11 5 7 11 17 17 12 19 22 20 17 11 10 6 5 11 12 10 12 10 13 12 12 11 11 18 8 24 31 40 50 50 50 53 57
49 49 49 49 36 21 30 27 29 27 -2 2 6 16 15 11 15 18 21 22 18 16 14 4 7 8 12 8 9 13 12 13 16 12 13 16 9 16 29 32 43 53 53 57 62
49 49 49 44 37 24 28 27 30 14 -4 6 12 9 11 13 12 21 21 22 22 20 16 13 19 16 11 21 19 20 18 18 15 9 5 18 11 15 19 36 41 53 58 60 61
49 48 47 41 19 30 27 27 13 5 4 3 8 9 6 7 8 14 18 19 15 16 15 11 13 14 19 19 20 18 12 8 7 5 7 21 13 16 25 41 46 48 59 60 61
48 47 47 40 39 35 27 20 10 7 4 8 10 9 9 5 7 10 16 15 16 15 11 10 6 14 18 19 14 15 11 6 9 5 8 23 11 23 36 48 54 55 61 62 62
47 40 38 35 39 37 25 14 7 8 12 11 8 6 8 9 7 8 9 11 14 17 12 9 6 16 21 20 20 19 13 15 14 13 7 13 19 20 37 47 55 57 61 62 63
37 39 32 38 41 27 20 12 13 11 16 13 7 10 9 10 7 8 8 9 10 15 16 18 14 13 21 22 22 21 20 13 12 12 10 12 18 14 21 38 51 53 57 60 59
41 28 31 33 29 21 13 11 14 12 15 11 13 11 12 13 11 8 8 9 9 11 15 15 19 17 23 20 17 21 19 19 17 18 12 12 14 21 27 37 46 52 55 55 51
33 23 32 33 16 17 14 17 15 9 9 8 9 11 11 14 14 14 10 8 11 11 15 16 18 15 13 22 23 22 20 20 15 20 15 19 16 25 35 42 50 52 52 52 54
35 29 30 30 9 12 17 13 13 8 6 4 3 9 14 14 17 17 21 16 16 13 14 18 17 18 16 20 24 21 21 23 27 27 20 14 18 29 34 41 50 53 54 55 53
39 24 22 22 24 18 18 15 12 12 7 5 7 8 8 9 17 21 22 22 27 18 30 24 15 19 9 15 18 24 24 23 21 18 21 17 21 24 38 40 46 53 54 52 55
35 32 33 17 18 25 26 23 16 11 11 16 11 9 8 13 13 18 25 27 30 33 26 20 21 20 17 19 19 21 22 22 24 20 20 18 21 34 42 46 45 50 52 53 55
33 33 31 32 34 29 27 26 23 21 19 11 14 13 14 13 16 24 26 30 25 30 29 26 23 18 16 14 15 18 22 23 24 25 23 21 24 43 47 49 48 50 53 52 54
36 38 34 31 30 26 25 27 25 25 24 17 19 21 23 24 19 31 34 35 38 35 31 30 22 27 12 18 18 16 21 22 23 24 24 23 39 44 46 50 51 51 50 51 54

GFSSW_sfc_30mbdewp_045.txt.gz
Dewpoint
54 54 54 54 54 55 55 55 55 55 56 56 56 57 57 57 57 51 29 28 31 39 39 37 30 45 38 43 39 32 44 40 26 30 31 36 35 40 42 41 47 49 50 56 62
53 53 54 53 54 54 55 55 55 55 55 56 56 57 57 57 50 33 42 40 39 41 27 17 21 25 25 32 27 33 41 35 27 29 28 32 37 39 41 41 49 52 55 59 61
53 53 53 53 53 54 54 54 54 54 55 55 56 57 57 57 45 31 53 45 41 37 14 17 20 25 24 25 28 33 36 27 25 27 29 31 34 38 38 37 42 50 55 57 59
52 52 52 53 53 53 54 54 54 54 55 55 56 56 57 48 31 41 44 42 36 26 20 20 20 22 25 24 28 29 32 28 26 26 27 30 33 34 37 38 41 51 54 56 57
52 52 52 52 53 53 53 54 54 54 55 55 56 57 41 33 33 43 33 28 29 26 21 20 21 23 24 26 28 30 28 27 25 24 26 28 30 33 34 44 45 51 53 55 55
52 52 52 52 53 53 54 54 54 54 55 55 57 56 42 16 34 35 21 20 22 21 18 19 20 24 24 26 27 29 27 24 24 25 25 25 25 31 33 40 49 51 51 53 55
51 51 52 52 52 53 53 53 53 54 55 56 57 48 23 12 21 32 24 18 23 22 19 20 21 20 25 26 28 27 25 23 23 21 21 24 23 26 30 39 49 51 50 52 55
51 51 52 52 52 53 53 52 52 53 55 57 55 42 21 16 20 25 26 21 22 23 23 24 22 19 22 26 26 26 24 20 20 17 17 19 29 41 33 40 46 50 50 52 55
51 51 52 52 52 52 52 51 50 53 54 58 48 38 13 21 12 14 23 19 19 21 21 21 19 17 22 23 24 23 23 31 18 15 13 18 20 28 27 36 41 49 51 52 55
51 51 52 52 52 52 51 48 49 49 51 46 38 24 14 5 17 19 21 23 21 18 17 15 12 14 19 19 19 20 19 27 17 16 12 12 16 19 30 31 37 46 51 53 54
50 51 51 51 51 51 47 30 31 36 29 12 17 9 8 12 21 16 20 19 18 18 11 12 7 7 13 17 17 18 20 19 19 15 13 15 17 23 29 30 35 43 51 53 54
50 51 51 51 51 50 47 24 25 26 17 11 10 12 13 16 14 16 20 17 13 11 9 10 4 4 8 16 18 17 17 16 17 14 14 13 15 21 25 31 31 34 47 52 54
50 50 51 50 50 43 28 26 27 26 17 7 8 7 7 9 9 11 17 16 12 9 7 7 4 8 8 10 16 14 15 16 17 17 15 12 13 21 26 33 40 43 44 52 54
50 50 50 49 37 18 24 29 26 27 12 6 7 6 9 10 4 10 17 15 13 8 6 5 4 7 5 5 12 13 15 14 12 11 9 18 10 22 27 32 39 44 45 50 55
50 50 50 49 33 17 30 24 26 26 5 4 5 15 7 5 8 7 16 15 13 9 11 5 2 3 4 6 6 6 14 12 11 11 11 10 12 17 24 29 33 45 50 53 59
50 49 49 42 38 22 22 25 27 15 2 2 5 3 6 7 3 14 13 16 16 14 13 7 11 5 2 5 9 8 14 14 13 10 7 10 11 7 22 29 28 47 55 57 60
49 49 48 38 22 23 24 23 15 8 6 1 3 4 2 3 3 10 14 12 13 14 14 9 8 9 9 12 15 10 11 10 10 7 4 15 13 9 23 34 37 47 56 58 60
49 49 45 31 30 28 27 19 11 9 6 6 6 5 4 2 3 4 8 10 12 11 7 8 4 7 11 11 13 8 8 8 8 7 9 17 9 13 27 38 43 51 57 60 60
48 40 32 30 29 29 24 13 12 10 7 4 4 3 3 5 3 4 6 9 10 10 11 7 8 8 10 13 14 16 10 11 10 12 12 10 14 21 24 37 43 50 57 59 60
38 26 25 31 31 22 19 13 9 11 11 10 7 4 2 6 5 3 6 8 9 11 14 11 12 9 10 16 17 17 19 10 11 6 10 10 15 20 24 33 41 47 53 59 61
38 26 29 27 23 15 15 14 12 13 12 8 6 6 7 10 8 4 5 7 7 8 12 11 16 11 14 17 14 14 16 16 12 15 12 16 19 21 25 32 39 44 54 56 52
28 20 26 23 11 12 15 18 16 13 10 8 10 12 10 11 12 10 7 7 8 6 7 11 12 12 16 16 14 15 17 14 14 16 16 12 22 19 29 36 40 48 52 50 51
31 25 25 21 8 9 14 17 16 11 7 6 4 5 11 12 15 13 11 13 11 7 9 11 12 15 14 14 18 17 19 20 20 22 22 17 19 26 33 38 43 48 50 54 55
35 19 18 15 14 18 11 15 13 11 7 5 6 6 8 11 15 18 15 19 15 11 23 17 15 16 12 12 14 18 15 14 15 18 18 17 25 29 35 40 48 52 54 55 54
30 25 29 13 11 14 18 18 14 14 11 6 6 6 9 11 11 14 16 18 24 27 18 15 19 18 15 16 17 17 19 18 15 18 18 26 30 39 40 41 44 51 54 53 54
34 28 24 26 30 21 23 20 20 16 16 16 12 9 6 10 15 18 22 19 22 23 24 19 18 19 17 16 13 17 18 19 16 17 18 20 34 39 44 46 47 50 51 52 53
32 35 33 27 25 23 19 21 23 21 22 21 15 10 11 17 21 20 24 31 32 35 29 25 23 21 18 15 13 12 15 20 20 20 22 21 38 42 44 47 49 50 50 50 52

GFSSW_sfc_30mbdewp_048.txt.gz
Dewpoint
54 54 54 55 55 55 55 55 56 55 56 56 56 57 58 57 56 53 28 29 34 52 51 46 45 37 43 35 37 40 41 37 33 39 38 42 40 36 39 41 42 43 48 55 60
54 54 54 54 55 55 55 55 55 55 55 56 56 57 58 57 46 37 34 46 44 47 31 23 19 22 26 28 30 38 38 37 36 26 32 43 42 45 46 43 47 48 53 58 60
53 53 53 53 54 54 55 55 55 55 55 55 56 57 58 57 42 29 48 42 40 44 28 17 17 20 24 28 26 41 37 37 37 24 27 35 44 46 44 37 45 49 54 57 59
53 53 53 53 53 53 54 54 54 55 55 55 56 57 58 48 34 31 48 45 41 36 18 13 19 19 23 26 25 31 36 30 25 25 25 27 35 43 39 40 44 51 54 55 57
52 52 53 53 53 53 53 54 54 54 54 55 56 58 37 36 31 33 45 37 27 23 25 22 21 20 23 24 25 25 31 27 24 23 23 26 27 31 41 42 42 51 53 54 55
52 52 52 53 53 54 54 54 53 53 54 55 57 58 43 23 31 28 23 22 23 23 19 19 19 20 23 24 25 27 29 26 22 23 23 21 24 28 32 41 42 49 51 53 54
52 52 52 52 52 53 53 53 53 53 53 55 58 49 26 16 17 30 23 17 19 19 18 19 19 20 22 24 25 27 25 24 24 22 19 22 28 29 38 45 44 48 50 51 54
51 51 52 52 53 53 53 52 51 52 53 55 59 43 23 17 17 17 27 21 17 19 19 22 23 20 19 22 25 24 24 27 34 33 16 16 29 33 36 44 45 47 48 50 54
52 52 52 52 52 52 52 50 50 52 54 55 50 40 22 15 8 8 18 18 17 18 19 19 19 16 18 19 21 21 22 29 28 30 13 12 29 33 36 40 36 44 48 49 53
51 51 52 52 52 52 50 44 45 48 47 46 40 26 20 8 9 15 17 19 18 17 15 16 11 8 15 16 17 24 32 31 33 28 13 10 15 25 29 29 31 41 48 50 52
51 51 51 52 52 51 45 32 31 38 29 20 19 12 9 10 17 14 15 16 15 15 14 12 6 5 10 15 16 17 32 34 34 34 13 11 16 19 25 25 28 36 49 51 52
50 51 51 51 51 50 47 35 24 22 19 17 17 11 13 14 11 11 13 14 12 9 10 9 8 7 7 10 13 16 18 25 27 20 14 11 13 17 21 25 25 25 44 50 64
50 51 51 51 50 44 28 24 24 22 16 9 6 6 6 8 6 6 13 13 11 8 7 6 6 6 4 7 10 16 16 13 14 17 16 13 11 14 23 26 33 37 38 50 65
50 51 51 50 38 28 14 28 21 23 13 5 3 6 6 5 3 7 12 12 11 8 7 5 7 6 6 4 5 7 11 13 12 13 8 16 13 22 22 30 36 41 42 51 64
50 50 50 50 34 22 28 23 21 22 6 5 4 9 5 5 5 4 9 13 11 10 8 6 4 2 3 4 3 9 10 12 12 9 9 10 9 27 24 32 38 45 49 57 63
50 50 50 40 43 28 18 20 21 15 4 4 6 6 4 4 3 8 5 13 13 10 11 7 9 5 2 4 5 7 6 12 12 10 8 11 11 24 28 34 43 50 54 58 60
49 49 48 40 26 23 18 20 14 9 5 3 2 4 2 1 2 5 9 9 8 10 11 12 8 9 9 2 3 8 8 10 11 9 7 11 9 21 30 31 41 53 55 58 60
48 48 41 34 21 24 22 17 12 9 5 6 3 3 -0 1 3 2 8 10 10 8 9 10 7 4 7 5 7 13 8 9 10 10 18 26 19 22 33 35 48 53 56 59 60
48 38 34 33 28 23 21 14 13 12 8 6 5 3 4 3 2 3 4 6 9 9 9 8 7 9 6 8 7 12 10 8 8 9 13 25 24 27 28 36 45 53 56 58 59
43 29 27 25 25 22 18 16 10 11 9 9 6 5 3 3 2 3 4 5 7 10 10 9 10 12 7 8 10 10 15 13 9 10 12 10 24 31 28 37 45 49 54 56 59
38 30 29 24 23 19 15 13 13 13 12 10 9 8 6 5 4 4 4 5 7 8 11 10 11 13 8 9 11 13 13 19 14 12 18 21 27 39 41 43 39 45 53 56 58
34 25 28 19 11 12 15 18 18 13 12 11 9 9 11 9 10 11 6 4 7 7 7 10 10 11 13 11 15 13 12 12 12 15 17 21 24 32 35 31 40 48 53 53 50
36 25 27 15 5 4 10 15 18 17 13 12 6 6 9 11 13 14 13 12 9 7 13 11 8 8 12 15 16 14 12 15 19 21 21 25 25 34 41 41 42 48 50 51 53
39 23 20 17 11 14 16 14 17 18 16 12 9 6 5 7 13 16 17 14 15 11 17 16 14 15 8 14 12 16 15 15 18 19 19 24 35 39 44 42 48 49 53 54 55
35 29 29 14 8 9 16 17 15 15 14 13 10 7 7 8 11 12 14 16 17 18 14 16 20 17 16 14 15 16 19 18 13 14 14 28 38 41 38 37 43 53 53 54 54
35 31 33 25 26 16 15 16 18 17 16 15 14 11 8 8 12 13 12 14 18 20 18 16 20 19 19 17 14 13 21 33 27 15 13 18 39 45 40 36 36 50 52 52 54
30 29 30 27 21 23 19 20 18 19 19 19 19 16 14 13 13 11 18 22 30 32 35 24 21 25 19 17 15 15 14 15 15 18 15 22 37 44 43 41 43 52 51 52 52